Stumpy Point, NC

7:06 PM EST on January 23, 2017 (GMT -0500)
Dare County Gunnery Range

Weather History for K2DP - January, 2014

Change the Weather History Date:

Friday, January 31, 2014

  Actual Average (KMQI) Record (KMQI)
Temperature  
Mean Temperature 36 °F -  
Max Temperature 50 °F 48 °F 73 °F (2002)
Min Temperature 23 °F 36 °F 20 °F (1978)
Degree Days  
Heating Degree Days 28    
Moisture  
Dew Point 32 °F    
Average Humidity 92    
Maximum Humidity 100    
Minimum Humidity 47    
Precipitation  
Precipitation 0.06 in - - ()
Sea Level Pressure  
Sea Level Pressure 30.21 in    
Wind  
Wind Speed 6 mph (NW)    
Max Wind Speed 10 mph    
Max Gust Speed -    
Visibility 7 miles    
Events Fog , Rain    
Averages and records for this station are not official NWS values.
T = Trace of Precipitation, MM = Missing Value Source: NWS Daily Summary

Daily Weather History Graph

Daily Weather History Graph

Search for Another Location

Airport or City:

Trip Planner

Search our weather history database for the weather conditions in past years. The results will help you decide how hot, cold, wet, or windy it might be!

Date:

Astronomy

Jan. 31, 2014 Rise Set
Actual Time 7:04 AM EST 5:30 PM EST
Civil Twilight 6:37 AM EST 5:57 PM EST
Nautical Twilight 6:06 AM EST 6:27 PM EST
Astronomical Twilight 5:36 AM EST 6:57 PM EST
Moon 7:16 AM EST (1/31) 6:47 PM EST (1/31)
Length of Visible Light 11h 19m
Length of Day
10h 25m
New Moon, 1% of the Moon is Illuminated
Jan 31
New Moon
Feb 6
First Quarter
Feb 14
Full
Feb 22
Last Quarter
Mar 1
New

Hourly Weather History & Observations

Time (EST) Temp. Windchill Dew Point Humidity Pressure Visibility Wind Dir Wind Speed Gust Speed Precip Events Conditions
12:56 AM 33.6 °F 26.8 °F 33.1 °F 98% 30.20 in 12.0 mi NW 8.1 mph - N/A   Overcast
1:12 AM 33.8 °F 27.0 °F 33.8 °F 100% 30.19 in 12.0 mi NNW 8.1 mph - N/A   Light Drizzle
1:46 AM 33.8 °F 27.0 °F 32.0 °F 93% 30.19 in 11.0 mi NW 8.1 mph - N/A   Mostly Cloudy
1:51 AM 33.8 °F 27.7 °F 32.0 °F 93% 30.20 in 12.0 mi NW 6.9 mph - N/A Rain Light Rain Showers
1:56 AM 33.1 °F 26.9 °F 32.5 °F 98% 30.20 in 8.0 mi NW 6.9 mph - N/A Rain Light Rain Showers
2:01 AM 33.8 °F 28.6 °F 32.0 °F 93% 30.19 in 3.0 mi NNW 5.8 mph - N/A Rain Light Rain Showers
2:13 AM 33.8 °F 27.7 °F 32.0 °F 93% 30.20 in 7.0 mi NW 6.9 mph - N/A Rain Light Rain Showers
2:52 AM 33.8 °F 28.6 °F 32.0 °F 93% 30.18 in 9.0 mi NNW 5.8 mph - N/A   Mostly Cloudy
2:56 AM 32.9 °F 27.5 °F 32.5 °F 99% 30.18 in 9.0 mi North 5.8 mph - 0.02 in   Mostly Cloudy
3:33 AM 32.0 °F 27.5 °F 32.0 °F 100% 30.18 in 10.0 mi NNW 4.6 mph - N/A Rain Light Rain Showers
3:56 AM 32.7 °F 27.3 °F 32.2 °F 98% 30.19 in 8.0 mi NW 5.8 mph - N/A Rain Light Rain Showers
4:01 AM 32.0 °F 26.4 °F 32.0 °F 100% 30.19 in 8.0 mi NW 5.8 mph - N/A   Mostly Cloudy
4:56 AM 32.7 °F 28.3 °F 32.4 °F 99% 30.18 in 8.0 mi NW 4.6 mph - N/A   Mostly Cloudy
5:00 AM 32.0 °F 27.5 °F 32.0 °F 100% 30.18 in 8.0 mi NW 4.6 mph - N/A Rain Light Rain
5:34 AM 32.0 °F - 32.0 °F 100% 30.18 in 6.0 mi Variable 1.2 mph - N/A Rain Light Rain Showers
5:46 AM 33.8 °F - 32.0 °F 93% 30.18 in 6.0 mi NW 2.3 mph - N/A   Mostly Cloudy
5:56 AM 32.9 °F 29.8 °F 32.5 °F 99% 30.19 in 8.0 mi NW 3.5 mph - 0.02 in   Overcast
6:35 AM 33.8 °F 28.6 °F 32.0 °F 93% 30.20 in 5.0 mi NW 5.8 mph - N/A   Light Drizzle
6:41 AM 33.8 °F 30.8 °F 32.0 °F 93% 30.21 in 4.0 mi WNW 3.5 mph - N/A   Light Drizzle
6:53 AM 33.8 °F 27.0 °F 32.0 °F 93% 30.21 in 2.8 mi NNW 8.1 mph - N/A   Drizzle
6:56 AM 32.9 °F 25.9 °F 32.4 °F 98% 30.21 in 1.9 mi NNW 8.1 mph - 0.02 in   Drizzle
7:01 AM 32.0 °F 27.5 °F 32.0 °F 100% 30.22 in 3.0 mi West 4.6 mph - N/A   Drizzle
7:12 AM 32.0 °F 26.4 °F 32.0 °F 100% 30.22 in 5.0 mi NW 5.8 mph - N/A Rain Light Rain Showers
7:13 AM 32.0 °F 26.4 °F 32.0 °F 100% 30.22 in 5.0 mi NW 5.8 mph - N/A   Mostly Cloudy
7:19 AM 32.0 °F 26.4 °F 32.0 °F 100% 30.22 in 6.0 mi NW 5.8 mph - N/A   Mostly Cloudy
7:24 AM 32.0 °F 26.4 °F 32.0 °F 100% 30.21 in 7.0 mi NNW 5.8 mph - N/A Rain Light Rain Showers
7:45 AM 33.8 °F 28.6 °F 32.0 °F 93% 30.21 in 9.0 mi NNW 5.8 mph - N/A   Mostly Cloudy
7:56 AM 33.1 °F 27.7 °F 32.5 °F 98% 30.21 in 11.0 mi NNW 5.8 mph - N/A   Mostly Cloudy
8:56 AM 34.5 °F - 33.3 °F 95% 30.23 in 12.0 mi Variable 1.2 mph - N/A   Mostly Cloudy
9:01 AM 33.8 °F - 33.8 °F 100% 30.23 in 12.0 mi NNW 2.3 mph - N/A   Mostly Cloudy
9:07 AM 35.6 °F 31.7 °F 33.8 °F 93% 30.23 in 12.0 mi North 4.6 mph - N/A   Mostly Cloudy
9:18 AM 35.6 °F 32.8 °F 33.8 °F 93% 30.23 in 12.0 mi NNW 3.5 mph - N/A   Mostly Cloudy
9:54 AM 35.6 °F - 33.8 °F 93% 30.24 in 12.0 mi Variable 1.2 mph - N/A   Overcast
9:57 AM 36.1 °F - 34.5 °F 94% 30.24 in 12.0 mi Variable 2.3 mph - N/A   Overcast
10:56 AM 39.4 °F 37.2 °F 36.3 °F 89% 30.23 in 12.0 mi Variable 3.5 mph - N/A   Overcast
11:42 AM 42.8 °F 40.1 °F 35.6 °F 76% 30.21 in 12.0 mi WNW 4.6 mph - N/A   Scattered Clouds
11:56 AM 45.1 °F - 34.9 °F 67% 30.22 in 12.0 mi Variable 2.3 mph - N/A   Scattered Clouds
12:06 PM 46.4 °F - 35.6 °F 66% 30.21 in 12.0 mi WSW 2.3 mph - N/A   Mostly Cloudy
12:47 PM 50.0 °F - 32.0 °F 50% 30.19 in 12.0 mi NNW 5.8 mph - N/A   Scattered Clouds
12:56 PM 50.0 °F - 30.6 °F 47% 30.19 in 12.0 mi NNW 5.8 mph - N/A   Scattered Clouds
1:56 PM 50.5 °F - 36.7 °F 59% 30.16 in 12.0 mi South 5.8 mph - N/A   Clear
2:56 PM 47.7 °F - 36.9 °F 66% 30.16 in 12.0 mi SSE 9.2 mph - N/A   Clear
3:56 PM 43.7 °F 38.1 °F 36.5 °F 76% 30.18 in 12.0 mi South 10.4 mph - N/A   Clear
4:56 PM 42.6 °F 39.9 °F 36.3 °F 78% 30.21 in 12.0 mi South 4.6 mph - N/A   Clear
5:56 PM 36.0 °F 33.3 °F 34.5 °F 94% 30.21 in 12.0 mi SSW 3.5 mph - N/A   Clear
6:24 PM 30.2 °F - 30.2 °F 100% 30.21 in 0.8 mi SSE 2.3 mph - N/A Fog Fog
6:48 PM 28.4 °F - 28.4 °F 100% 30.21 in 0.4 mi Variable 1.2 mph - N/A Fog Patches of Fog
6:56 PM 27.7 °F - 27.5 °F 99% 30.22 in 0.4 mi South 1.2 mph - N/A Fog Fog
7:36 PM 26.6 °F - 24.8 °F 93% 30.22 in 0.8 mi WNW 1.2 mph - N/A Fog Light Freezing Fog
7:47 PM 24.8 °F - 24.8 °F 100% 30.22 in 0.5 mi West 1.2 mph - N/A Fog Light Freezing Fog
7:56 PM 25.3 °F - 25.3 °F 100% 30.22 in 0.8 mi Variable 1.2 mph - N/A Fog Light Freezing Fog
8:56 PM 25.2 °F - 25.0 °F 99% 30.23 in 0.4 mi ESE 1.2 mph - N/A Fog Light Freezing Fog
9:56 PM 24.6 °F - 24.1 °F 98% 30.23 in 0.4 mi NNE 1.2 mph - N/A Fog Light Freezing Fog
10:36 PM 24.8 °F - 24.8 °F 100% 30.23 in 0.8 mi Variable 1.2 mph - N/A Fog Light Freezing Fog
10:56 PM 23.9 °F 18.0 °F 23.5 °F 99% 30.24 in 0.4 mi North 4.6 mph - N/A Fog Light Freezing Fog
11:56 PM 23.5 °F 13.7 °F 23.4 °F 99% 30.23 in 0.4 mi NNW 9.2 mph - N/A Fog Light Freezing Fog